SL-16 DEB

基本信息
目录编号:
28357
目录名称:
SL-16 DEB
国际标识:
2004-021F
轨道中心:
EARTH
物体状态:
在轨
发射日期:
2004-06-10 UTC
轨道信息
数据来源: 国际轨道数据
星历时间: 2026-07-14T05:02:59+0800
半长轴: 7364.914km
偏心率: 0.019779
轨道倾角: 71.072°
近地点辐角: 54.077°
升交点赤经: 69.028°
平近点角: 39.695°
近地点: 841.106km
远地点: 1132.448km
周期: 104.836分钟
每日圈数: 13.735715
详细信息
发射场:
TTMTR
轨道高度:
LEO
数据来源:
AOE Integration Group
参考系:
TEME
时间系统:
UTC
历元类型:
SGP4
2D轨道图
3D轨道图
轨道高度分析图
轨道倾角分析图
轨道综合分析图
查看轨道综合分析图